Location: Dannhausen
(51.8650°N, 10.1026°E)
Time: 18:53:20
(UTC+00:00)

Cosmos 2278 - Pass Details

Date: 09 April 2020
Orbit: 840 x 852 km, 71.1° (Epoch: 24 May)

Event Time Altitude Azimuth Distance (km) Brightness Sun altitude
Rises 20:21:46 0° 330° (NNW) 3,408 8.2 -18.9°
Reaches altitude 10° 20:24:17 10° 335° (NNW) 2,470 7.1 -19.2°
Maximum altitude 20:29:51 55° 53° (NE) 1,010 4.0 -19.8°
Enters shadow 20:31:55 36° 111° (ESE) 1,313 4.2 -20.1°
